Probability
0 0 0 0 0 0 0 0 0 0 0 0 0 0 0 0 0 0 0 0 0 0 0 0 0 0 0 0 0 0 0 0 0 0 0 0 0 0 0 0 0 0 0
0 0 0 0 0 0 0 0 0 0 0 0 0 0 0 0 0 0 0 0 0 0 0 0 0 0 0 0 0 0 0 0 0 0 0 0 0 0 0 0 0 0 0
0 0 0 0 0 0 0 0 0 0 0 0 0 0 0 0 0 0 0 0 0 0 0 0 0 0 0 0 0 0 0 0 0 0 0 0 0 0 0 0 0 0 0
0 0 0 0 0 0 0 0 0 0 0 0 0 0 0 0 0 0 0 0 0 0 0 0 0 0 0 0 0 0 0 0 0 0 0 0 0 0 0 0 0 0 0
0 0 0 0 0 0 0 0 0 0 0 0 0 0 0 0 0 0 0 0 0 0 0 0 0 0 0 0 0 0 0 0 0 0 0 0 0 0 0 0 0 0 0
0 0 0 0 0 0 0 0 0 0 0 0 0 0 0 0 0 0 0 0 0 0 0 0 0 0 0 0 0 0 0 0 0 0 0 0 0 0 0 0 0 0 0
0 0 0 0 0 0 0 0 0 0 0 0 0 0 0 0 0 0 0 0 0 0 0 0 0 0 0 0 0 0 0 0 0 0 0 0 0 0 0 0 0 0 0
0 0 0 0 0 0 0 0 0 0 0 0 0 0 0 0 0 0 0 0 0 0 0 0 0 0 0 0 0 0 0 0 0 0 0 0 0 0 0 0 0 0 0
0 0 0 0 0 0 0 0 0 0 0 0 0 0 0 0 0 0 0 0 0 0 0 0 0 0 0 0 0 0 0 0 0 0 0 0 0 0 0 0 0 0 0
0 0 0 0 0 0 0 0 0 0 0 0 0 0 0 0 0 0 0 0 0 0 0 0 0 0 0 0 0 0 0 0 0 0 0 0 0 0 0 0 0 0 0
0 0 0 0 0 0 0 0 0 0 0 0 0 0 0 0 0 0 0 0 0 0 0 0 0 0 0 0 0 0 0 0 0 0 0 0 0 0 0 0 0 0 0
0 0 0 0 0 0 0 0 0 0 0 0 0 0 0 0 0 0 0 0 0 0 0 0 0 0 0 0 0 0 0 0 0 0 0 0 0 0 0 0 0 0 0
0 0 0 0 0 0 0 0 0 0 0 0 0 0 0 0 0 0 0 0 0 0 0 0 0 0 0 0 0 0 0 0 0 0 0 0 0 0 0 0 0 0 0
0 0 0 0 0 0 0 0 0 0 0 0 0 0 0 0 0 0 0 0 0 0 0 0 0 0 0 0 0 0 0 0 0 0 0 0 0 0 0 0 0 0 0
0 0 0 0 0 0 0 0 0 0 0 0 0 0 0 0 0 0 0 0 0 0 0 0 0 0 0 0 0 0 0 0 0 0 0 0 0 0 0 0 0 0 0
0 0 0 0 0 0 0 0 0 0 0 0 0 0 0 0 0 0 0 0 0 0 0 0 0 0 0 0 0 0 0 0 0 0 0 0 0 0 0 0 0 0 0
0 0 0 0 0 0 0 0 0 0 0 0 0 0 0 0 0 0 0 0 0 0 0 0 0 0 0 0 0 0 0 0 0 0 0 0 0 0 0 0 0 0 0
0 0 0 0 0 0 0 0 0 0 0 0 0 0 0 0 0 0 0 0 0 0 0 0 0 0 0 0 0 0 0 0 0 0 0 0 0 0 0 0 0 0 0
0 0 0 0 0 0 0 0 0 0 0 0 0 0 0 0 0 0 0 0 0 0 0 0 0 0 0 0 0 0 0 0 0 0 0 0 0 0 0 0 0 0 0
0 0 0 0 0 0 0 0 0 0 0 0 0 0 0 0 0 0 0 0 0 0 0 0 0 0 0 0 0 0 0 0 0 0 0 0 0 0 0 0 0 0 0
0 0 0 0 0 0 0 0 0 0 0 0 0 0 0 0 0 0 0 0 0 0 0 0 0 0 0 0 0 0 0 0 0 0 0 0 0 0 0 0 0 0 0
0 0 0 0 0 0 0 0 0 0 0 0 0 0 0 0 0 0 0 0 0 0 0 0 0 0 0 0 0 0 0 0 0 0 0 0 0 0 0 0 0 0 0
0 0 0 0 0 0 0 0 0 0 0 0 0 0 0 0 0 0 0 0 0 0 0 0 0 0 0 0 0 0 0 0 0 0 0 0 0 0 0 0 0 0 0
0 0 0 0 0 0 0 0 0 0 0 0 0 0 0 0 0 0 0 0 0 0 0 0 0 0 0 0 0 0 0 0 0 0 0 0 0 0 0 0 0 0 0
0 0 0 0 0 0 0 0 0 0 0 0 0 0 0 0 0 0 0 0 0 0 0 0 0 0 0 0 0 0 0 0 0 0 0 0 0 0 0 0 0 0 0
0 0 0 0 0 0 0 0 0 0 0 0 0 0 0 0 0 0 0 0 0 0 0 0 0 0 0 0 0 0 0 0 0 0 0 0 0 0 0 0 0 0 0
Wind_Speed
15 8 9 9 8 8 8 9 9 9 8 5 4 5 4 3 3 3 5 6 7 8 8 8 8 7 8 9 10 11 10 6 5 6 5 4 4 5 5 4 5 7 6
11 11 10 11 12 12 11 11 11 11 10 5 3 3 4 4 3 3 4 5 6 7 8 9 8 7 9 10 10 10 6 3 1 4 4 3 1 3 4 4 5 5 5
18 14 13 14 14 15 15 13 13 11 10 8 6 6 5 4 3 3 3 3 5 6 7 8 8 8 8 9 8 8 9 6 2 2 4 5 4 1 2 3 3 4 4
16 12 13 15 17 17 13 12 13 12 11 11 10 10 8 6 5 4 4 4 5 6 7 8 8 7 6 8 7 5 5 7 5 3 3 3 4 5 2 1 2 3 3
13 13 14 16 14 12 12 12 12 12 12 12 12 10 7 6 6 6 7 6 4 5 6 7 8 7 6 7 7 6 6 4 5 4 3 4 4 3 4 2 2 2 1
8 9 8 9 10 11 12 13 14 13 13 13 12 11 12 12 12 11 9 6 4 4 5 6 7 7 7 7 7 7 8 6 6 5 4 4 4 3 3 3 1 2 2
5 5 7 10 12 14 15 14 15 14 13 13 13 11 12 15 17 15 12 10 7 4 6 7 7 6 7 7 7 8 7 7 8 6 4 3 3 4 4 4 2 1 2
5 6 8 10 12 14 15 16 16 14 14 14 12 10 12 10 10 12 12 12 9 7 8 8 7 8 8 8 7 7 6 6 7 7 6 5 4 3 3 4 4 2 1
7 7 7 9 11 13 15 15 15 13 14 13 12 11 12 10 10 11 9 8 8 8 10 9 9 8 8 8 8 7 7 7 6 7 7 5 3 3 3 3 3 4 2
5 6 6 8 9 10 10 11 12 13 12 12 12 11 11 10 10 11 12 10 10 10 11 10 10 9 8 8 7 7 7 7 6 5 7 5 4 4 3 3 3 2 4
6 6 6 6 7 7 9 10 11 11 12 13 12 12 12 10 11 10 11 12 11 12 13 12 11 11 9 8 8 7 8 9 7 6 7 6 5 4 3 3 3 3 3
4 5 6 7 8 9 10 11 12 12 13 13 12 13 12 12 13 12 11 11 12 12 12 12 11 11 10 9 10 10 9 9 10 8 7 7 5 5 4 4 4 4 4
4 4 6 8 10 11 12 12 13 13 12 13 14 14 14 15 15 14 13 12 12 12 11 12 12 12 11 10 9 9 9 9 9 9 9 8 8 7 5 5 5 4 4
6 7 8 9 11 11 12 13 13 12 13 14 15 16 16 16 15 14 14 13 13 13 13 12 11 11 10 10 9 9 8 7 7 7 7 8 9 8 7 6 6 5 5
8 10 11 11 11 12 13 14 14 14 14 15 16 16 14 14 14 14 14 14 13 13 12 11 10 9 9 10 10 9 9 8 7 6 7 7 10 11 9 7 7 7 6
12 12 12 12 13 15 15 15 16 16 15 17 16 13 14 14 15 15 14 14 13 12 12 12 12 11 10 16 19 12 9 8 9 8 7 7 8 12 16 16 14 12 8
13 13 13 14 15 16 16 18 16 13 15 15 13 13 15 16 16 15 15 16 15 13 13 12 12 12 14 20 20 18 9 9 8 8 7 7 7 9 8 12 17 15 18
12 11 11 12 13 13 12 11 10 12 14 14 13 14 15 15 14 15 16 15 13 13 13 13 13 11 13 20 20 18 10 7 8 8 8 9 8 9 9 8 9 10 11
10 10 10 10 9 10 10 10 11 12 14 15 15 14 14 15 15 16 16 12 12 12 11 11 12 11 12 19 19 17 7 7 9 8 8 9 9 13 15 10 9 11 11
6 6 5 4 5 7 9 12 12 13 15 14 12 11 12 14 15 14 12 8 9 10 10 9 10 10 9 16 19 18 6 8 8 7 8 12 14 15 16 11 9 12 11
5 4 2 2 3 5 9 10 11 12 10 8 9 10 10 10 10 9 8 9 8 8 8 8 7 8 8 13 19 19 9 9 8 8 8 8 17 19 19 17 11 16 12
4 3 2 2 2 5 8 8 8 6 8 9 9 9 9 8 8 10 9 9 10 10 9 8 7 6 7 10 15 21 20 15 10 10 7 8 15 17 19 15 16 19 14
4 3 4 5 5 3 5 6 5 8 9 9 9 9 9 8 9 10 10 9 9 8 8 8 8 7 6 9 18 20 22 22 13 9 13 14 16 15 13 15 17 11 6
4 3 5 6 6 5 5 5 6 8 9 9 8 8 9 8 8 7 8 8 9 9 8 8 8 7 6 7 7 8 9 14 14 9 7 11 13 11 9 6 7 5 4
4 4 6 7 6 6 7 5 5 8 9 8 8 8 7 8 7 6 6 7 6 8 9 8 7 8 8 10 14 9 7 7 7 4 1 2 2 4 4 3 3 3 3
5 6 7 8 7 8 8 7 4 5 8 7 6 5 5 5 5 5 3 5 5 8 10 9 7 5 8 9 13 15 15 14 12 7 4 4 4 5 4 3 3 2 3
Wind_Direction
247 219 202 192 189 190 188 185 175 168 159 151 150 141 127 110 94 91 106 121 129 131 130 129 129 129 126 129 128 121 111 105 116 105 92 59 55 60 50 47 55 51 47
245 220 201 194 195 194 192 189 184 178 177 166 140 126 121 109 92 90 91 106 124 131 134 135 134 131 127 128 134 131 120 108 69 127 125 116 34 28 37 39 53 50 44
241 227 206 203 199 199 195 192 187 181 177 158 135 116 105 102 107 110 101 93 114 123 130 134 133 135 137 143 147 146 137 137 76 62 142 147 173 157 358 25 43 45 49
239 228 207 204 205 203 191 188 183 180 175 166 167 165 163 160 163 148 133 114 110 121 127 130 130 131 133 139 143 139 131 133 135 92 53 91 134 139 135 333 14 47 57
234 228 213 209 204 191 185 185 180 181 176 176 179 179 162 138 135 132 131 122 113 118 127 131 129 130 131 132 130 128 127 126 137 137 130 94 70 83 130 157 325 354 28
239 231 213 194 188 181 182 182 183 184 179 179 182 184 164 151 150 152 149 141 133 124 131 130 129 130 130 131 131 127 123 120 120 122 129 136 135 135 127 141 202 297 303
245 226 202 192 187 185 186 187 186 185 181 181 184 183 172 166 165 163 161 158 156 156 161 146 140 134 130 128 125 121 120 123 124 124 116 115 121 131 127 127 144 238 302
249 232 212 198 192 189 188 189 190 186 181 182 183 178 173 175 171 169 165 168 167 160 160 151 143 135 132 130 124 120 121 122 121 121 120 116 115 120 133 140 143 144 309
248 235 216 200 193 191 192 192 190 184 182 182 177 176 177 178 172 169 163 162 156 152 154 151 145 140 137 136 132 131 131 128 124 128 125 121 122 117 117 124 140 146 177
242 229 213 202 195 191 188 188 189 186 178 178 178 178 179 177 171 168 168 163 158 154 156 154 149 145 144 143 135 135 138 132 131 135 134 130 133 130 127 131 133 139 162
237 223 208 195 186 180 181 186 186 179 179 180 178 175 177 173 170 175 173 167 161 160 164 161 157 156 155 152 148 149 151 145 143 146 148 148 147 145 146 144 149 159 161
231 210 194 183 184 186 188 192 191 187 184 179 177 177 175 174 176 178 174 169 167 167 166 162 161 162 163 162 162 161 163 160 161 163 159 161 159 162 164 168 178 184 187
221 200 192 196 198 197 197 197 197 192 183 178 178 179 180 181 182 180 174 173 170 168 167 167 169 170 169 170 172 169 171 173 171 170 172 173 170 180 181 186 193 196 203
218 210 211 211 208 204 202 201 200 192 184 182 184 186 187 186 183 178 177 177 174 173 175 176 174 172 171 173 173 174 175 176 176 177 180 179 185 190 187 195 202 199 207
227 221 220 216 210 208 207 205 202 194 187 187 192 193 185 182 179 178 178 177 178 179 176 173 171 170 174 179 178 179 178 179 181 187 192 195 200 203 199 202 200 198 208
237 230 224 217 213 212 210 205 204 196 189 193 196 186 179 180 181 180 177 177 178 176 174 178 177 179 187 191 190 182 182 184 189 197 202 204 209 219 222 225 221 210 206
241 235 226 220 217 214 207 206 203 188 190 195 190 183 180 182 182 178 177 181 181 176 179 181 181 187 195 195 195 194 184 190 198 201 201 208 213 210 223 236 240 237 236
243 240 233 228 222 214 205 198 182 183 190 193 190 185 182 181 177 178 183 183 179 181 183 184 187 188 198 198 198 196 190 198 208 209 207 212 214 209 212 223 236 242 245
246 243 238 233 222 204 190 175 178 182 188 194 193 186 180 178 178 183 185 181 176 181 184 182 183 189 198 201 201 196 191 209 222 219 215 218 222 227 225 224 236 249 252
271 266 260 236 216 194 167 170 179 183 194 194 186 177 177 179 183 183 177 170 173 177 175 179 184 189 193 202 204 203 196 216 227 224 223 226 229 235 234 229 230 248 255
307 303 282 238 211 164 157 170 178 192 186 165 159 164 171 173 170 164 158 156 157 159 166 171 177 188 194 207 209 210 206 217 226 230 230 229 238 241 240 237 234 246 256
344 352 18 33 63 134 151 164 178 163 141 144 150 155 157 155 153 154 153 155 159 165 171 175 184 196 197 205 217 220 223 220 224 234 233 230 242 246 248 247 249 257 260
10 21 67 67 56 82 130 145 142 131 132 137 144 147 147 149 154 157 158 159 167 174 181 187 199 205 201 214 220 225 230 233 230 234 239 242 247 251 253 255 258 260 252
24 44 75 76 61 56 74 101 119 126 129 135 137 141 146 148 151 155 161 168 176 183 187 194 205 206 200 203 209 217 228 236 241 244 246 253 256 255 252 253 258 251 244
38 56 74 77 67 61 63 71 102 122 126 131 135 141 146 151 155 157 170 176 184 191 191 198 198 200 210 213 207 203 211 213 222 216 211 211 224 235 241 244 240 238 242
62 68 72 77 70 65 57 42 53 108 124 128 134 138 140 142 145 146 135 178 172 195 208 206 198 206 215 214 215 217 219 221 219 209 210 220 222 228 233 240 247 238 245